Theta_e
312 312 313 318 326 330 334 335 336 335 334 333 331 333 339 347 351 358 357 349 350 354 342 343 344 342 337 332 333 337 340 342 343 342 338 333 330 329 322 324 328 334 332 331 331 331 331 325 324
315 314 317 321 327 334 334 335 335 335 333 332 332 331 340 348 351 358 354 349 351 350 339 342 344 341 336 331 330 330 330 334 335 334 333 330 327 328 322 325 329 335 334 333 331 329 326 322 322
312 313 319 323 328 333 336 335 333 334 333 331 331 329 331 343 356 358 354 349 352 349 339 342 343 339 335 331 330 328 326 324 326 328 329 326 327 326 323 325 326 328 328 324 322 322 322 322 323
314 316 318 322 328 330 332 334 331 331 329 327 328 329 328 337 354 359 351 352 354 354 352 343 342 338 335 333 331 330 326 323 324 324 324 325 327 325 324 326 327 326 325 322 323 323 322 323 323
313 316 319 320 322 326 325 326 328 329 329 327 326 329 327 345 352 356 352 354 354 353 354 344 341 337 335 335 334 332 328 323 322 322 324 325 326 323 326 328 326 324 324 323 323 324 323 323 323
315 316 318 319 321 322 324 323 323 325 326 325 323 325 326 338 350 357 354 354 354 352 354 343 340 337 335 336 336 335 331 326 322 324 324 324 324 322 326 328 326 326 324 323 323 324 323 323 325
317 318 317 319 320 321 322 320 321 323 324 325 323 324 327 340 350 357 356 356 355 353 353 344 340 337 335 336 337 337 335 331 325 323 323 323 323 322 324 326 326 326 326 323 322 323 323 324 326
316 318 319 319 319 319 321 319 319 319 320 320 320 323 326 339 353 355 357 357 356 354 353 350 345 338 336 336 337 338 338 336 332 326 323 323 324 324 323 324 324 325 326 325 322 323 324 326 327
316 318 319 321 319 319 318 319 318 318 319 319 319 321 328 347 354 355 358 358 356 353 352 351 349 343 343 341 338 337 338 338 336 331 326 324 325 327 326 326 327 327 326 324 323 322 323 326 328
318 321 321 321 321 320 320 318 318 318 318 319 323 337 352 349 351 355 357 357 356 353 353 351 352 348 345 345 340 337 337 337 337 335 331 327 340 338 341 339 331 330 328 324 321 322 322 324 333
319 322 323 321 319 318 319 318 317 318 319 320 321 334 355 353 352 355 356 355 355 353 353 352 353 351 347 347 345 344 344 343 339 338 336 340 343 342 340 342 330 328 326 328 324 322 324 333 333
320 320 320 321 318 317 318 318 318 317 318 318 320 319 321 356 353 355 356 355 354 354 354 352 353 351 349 348 348 347 346 346 346 346 343 345 344 344 342 341 340 340 339 337 337 335 335 338 338
320 319 319 318 318 317 317 318 318 318 317 317 317 318 320 322 356 356 355 353 353 354 353 344 351 346 346 349 349 348 349 348 347 347 346 346 345 345 343 342 340 340 338 339 338 336 338 336 336
319 319 319 318 318 318 319 319 317 318 317 317 317 318 319 322 341 356 354 354 354 355 351 349 349 344 344 350 352 350 350 349 348 347 347 345 346 346 344 343 342 340 340 340 340 339 340 342 342
317 318 319 320 319 319 318 319 319 318 317 317 317 317 319 321 323 356 356 356 357 357 355 351 347 348 344 349 350 352 352 351 349 348 346 344 343 346 343 344 343 341 343 340 335 340 343 344 344
318 318 320 320 319 319 319 320 321 320 318 318 318 317 318 319 320 339 352 354 356 358 358 357 353 348 345 350 352 349 351 350 350 349 348 344 342 343 344 345 344 342 342 341 340 340 341 341 338
318 320 319 319 320 319 319 319 321 319 320 320 320 318 318 319 320 321 336 351 354 358 360 358 355 352 347 351 349 346 351 350 349 349 349 348 346 346 344 344 342 335 340 341 337 337 335 334 330
320 319 320 321 320 319 320 319 321 320 320 320 321 320 318 319 320 320 323 334 347 354 357 354 342 353 355 355 350 348 352 351 350 347 347 346 345 343 342 340 339 339 333 330 328 325 324 328 330
321 321 321 320 320 320 321 321 320 321 320 320 320 320 319 319 319 319 321 326 334 344 349 330 327 351 353 355 350 351 351 349 346 343 341 339 340 339 338 339 337 333 330 326 326 328 325 333 335
319 320 320 320 319 319 320 321 321 321 321 320 320 320 320 319 320 320 321 324 331 334 335 325 325 337 351 351 350 350 348 347 343 344 343 342 339 337 337 337 334 330 327 326 321 322 330 335 333
320 321 320 320 319 319 320 321 322 322 321 320 320 320 320 319 320 320 320 321 326 331 332 343 338 332 348 354 351 349 346 345 344 345 341 339 335 331 334 332 330 327 322 320 322 322 333 335 337
320 319 320 319 319 320 319 321 321 322 322 322 321 321 320 320 319 320 323 323 326 330 338 345 343 335 351 352 347 346 347 345 344 343 340 331 326 325 324 324 324 326 323 324 324 334 334 335 336
320 319 320 319 319 320 320 320 322 322 321 322 322 320 320 320 320 320 323 326 329 334 342 342 335 345 348 352 346 346 345 345 343 339 335 326 330 332 332 331 332 330 326 333 334 335 330 325 322
319 319 319 320 319 320 320 320 321 323 323 322 323 321 321 320 320 320 322 331 339 340 338 339 339 345 342 344 344 345 344 342 340 338 332 331 334 334 334 333 333 334 333 331 327 323 320 317 315
318 321 323 323 322 320 320 321 322 323 322 323 323 321 320 320 321 322 335 337 333 336 342 340 341 338 341 342 341 340 338 335 336 335 334 333 334 335 334 332 330 327 325 321 318 315 313 313 313
320 321 323 323 322 320 321 320 322 321 320 321 322 322 326 332 330 334 335 332 333 336 338 338 340 342 341 337 335 333 331 329 329 330 332 331 331 330 327 324 321 317 315 313 313 313 312 312 312
319 322 320 320 321 322 320 320 321 320 320 326 328 332 336 333 333 333 333 334 335 335 336 335 334 334 333 332 331 330 327 324 324 330 329 328 327 323 318 316 314 313 313 312 312 315 313 312 314
319 321 321 319 322 321 321 322 322 322 325 332 334 334 332 332 332 332 333 334 335 335 335 331 329 327 325 324 324 324 324 324 325 327 327 324 318 315 313 313 312 312 312 312 312 314 315 313 315
322 322 319 319 321 322 322 322 325 323 326 332 334 330 330 329 329 330 331 332 333 332 330 329 327 325 326 325 323 324 325 327 325 320 316 314 313 313 314 312 313 314 313 313 313 312 314 315 315
319 321 320 321 322 321 322 323 330 325 328 333 330 330 327 326 328 329 331 332 331 329 328 327 326 325 325 326 326 324 323 316 314 314 313 313 313 315 314 314 315 314 314 313 313 314 314 315 314
Wind_Speed
8 6 4 4 7 7 16 16 9 7 7 6 1 5 8 12 5 4 8 13 23 26 28 26 24 22 20 20 19 20 20 19 17 15 13 12 13 14 16 17 16 15 16 15 14 13 11 10 10
5 4 4 6 9 15 15 19 10 10 6 4 6 6 6 7 2 3 13 16 24 26 29 28 27 24 21 21 20 19 17 17 16 15 14 14 14 16 17 16 16 15 14 14 13 12 11 11 11
6 8 9 6 14 20 16 11 9 13 4 8 5 4 4 2 1 3 7 22 27 26 30 30 28 25 22 21 20 17 15 16 16 16 16 15 16 17 18 16 15 14 14 13 13 13 13 12 12
5 6 7 11 21 20 22 16 3 9 10 7 5 8 3 3 3 4 18 23 24 24 25 29 28 26 23 20 19 16 14 14 16 17 16 16 16 17 17 16 14 13 12 13 13 13 13 13 13
6 7 11 16 25 23 9 18 9 13 8 8 5 9 7 2 1 8 19 22 23 23 23 29 28 26 23 21 18 15 14 13 14 15 15 16 17 18 17 15 12 12 11 11 12 12 13 13 13
10 8 12 18 23 21 18 23 16 15 12 10 10 12 10 4 5 12 17 20 21 23 24 30 29 26 24 22 19 16 14 13 13 14 14 15 16 17 16 15 13 11 10 11 11 12 12 12 13
16 11 18 21 21 17 17 16 17 21 20 18 13 10 7 6 9 13 18 20 21 22 24 29 30 27 25 23 20 17 15 13 12 12 12 13 15 15 15 13 12 11 11 11 12 13 13 13 14
17 10 21 22 18 22 16 10 13 18 14 7 7 8 11 9 11 16 19 20 22 24 23 25 27 28 27 25 22 19 16 14 12 11 11 13 14 14 14 13 13 12 12 12 13 14 14 14 15
17 10 18 23 19 17 2 11 13 8 11 9 13 12 7 5 12 16 20 22 24 24 25 25 26 27 25 24 24 21 18 15 13 13 12 13 14 15 15 14 13 12 12 13 13 14 15 15 15
17 16 25 20 15 13 13 9 8 10 16 14 12 10 7 13 15 20 24 27 27 27 26 25 25 25 24 21 25 24 21 20 18 16 15 15 14 14 14 14 14 14 13 13 14 15 16 16 12
19 28 18 18 19 21 20 12 12 12 13 15 16 5 4 11 16 21 24 25 26 25 24 25 25 25 24 22 22 20 19 18 20 20 18 16 14 13 14 13 16 16 16 12 14 15 15 14 13
20 27 29 22 20 21 20 21 20 18 18 4 11 6 2 9 17 21 24 26 27 27 26 27 25 26 26 22 21 21 20 19 18 17 19 15 14 14 13 12 12 14 13 13 13 12 12 13 14
29 21 20 27 25 23 23 22 19 22 22 21 16 12 10 10 16 20 22 23 25 25 25 26 26 28 28 23 20 20 19 19 18 18 19 16 14 14 13 13 12 12 13 13 13 12 12 12 12
12 28 31 23 26 27 23 23 23 19 21 18 19 21 16 12 17 20 22 23 24 23 24 25 27 28 30 25 20 20 19 17 18 17 17 20 15 13 12 12 11 11 12 12 12 11 11 10 11
19 17 16 25 29 20 18 27 31 27 22 23 23 24 20 16 14 22 23 23 23 22 22 25 27 27 28 25 20 17 16 17 17 18 20 20 20 16 14 11 11 10 10 12 13 13 12 10 11
22 22 24 25 23 27 20 26 21 33 32 32 30 28 24 21 16 22 24 22 22 21 22 23 24 25 26 24 20 21 18 16 15 16 16 20 21 18 14 12 11 9 12 11 11 11 13 11 13
19 24 32 23 22 18 25 18 24 11 31 32 30 29 28 25 21 19 23 23 22 21 20 21 22 23 25 23 26 22 18 16 15 15 15 16 16 15 15 14 11 11 10 9 4 3 7 11 14
27 30 25 26 25 24 24 23 11 12 25 24 31 30 31 29 25 21 22 22 21 20 20 20 24 21 22 24 24 17 15 14 14 15 16 18 21 22 21 18 14 11 2 8 10 5 3 9 17
9 18 26 22 16 25 30 23 24 16 19 22 22 26 29 32 27 24 22 20 20 19 19 22 22 26 27 27 22 17 16 16 18 15 19 21 21 22 23 19 7 4 5 8 6 9 9 17 22
31 22 20 18 18 19 23 26 23 24 18 25 23 22 25 30 31 26 23 21 21 22 21 22 22 25 28 23 17 16 21 14 13 15 18 16 15 20 23 22 17 17 4 14 3 11 21 21 20
29 31 21 16 18 19 15 19 24 26 28 27 24 22 25 28 32 26 23 22 23 23 24 20 21 24 23 19 17 18 15 16 14 15 16 14 9 11 18 13 13 10 11 15 18 22 19 13 15
28 27 23 15 13 17 21 12 26 24 27 28 32 31 29 27 28 27 23 22 22 22 19 19 21 23 21 20 16 17 14 13 13 12 15 14 13 12 12 15 14 13 19 26 27 22 18 14 9
29 20 25 19 19 13 22 10 15 26 27 28 24 31 31 29 28 27 25 22 17 18 19 22 22 20 17 18 14 12 13 13 12 14 17 20 17 15 13 12 15 20 26 20 16 14 11 10 8
22 20 22 22 18 17 19 18 17 19 27 24 23 30 32 31 28 25 21 19 19 19 21 20 23 22 17 18 20 15 13 16 18 18 20 18 16 16 17 17 16 17 14 12 11 10 12 14 16
21 19 9 12 14 15 26 17 21 17 18 21 24 29 30 27 25 24 24 22 20 22 25 28 27 25 25 25 21 20 15 6 10 15 18 18 17 15 15 13 11 11 12 10 10 12 14 16 16
30 28 11 20 20 25 16 20 12 12 8 12 25 25 23 21 23 25 22 21 23 24 23 23 23 24 21 20 19 18 13 10 12 8 13 15 14 12 12 12 10 9 8 9 10 10 12 17 16
24 26 29 13 19 17 15 13 12 11 15 12 16 26 25 22 23 22 22 23 23 25 24 26 26 24 20 16 11 12 12 12 10 8 8 9 10 8 9 9 9 8 8 9 10 9 13 16 15
23 26 25 13 18 20 19 24 8 23 19 17 18 20 23 22 23 24 26 29 30 28 27 25 23 21 17 12 8 9 7 13 15 14 8 10 10 9 7 7 7 7 8 10 11 11 10 15 11
13 21 25 20 16 14 16 17 6 25 23 20 18 22 25 24 25 28 30 29 26 25 22 21 20 22 20 17 17 15 15 13 12 12 11 11 8 6 5 4 4 5 7 10 12 12 8 9 10
11 23 28 14 16 15 11 10 2 13 18 18 20 24 24 26 29 30 28 27 27 26 25 24 23 23 21 21 20 18 16 16 14 11 9 6 5 5 5 3 3 5 8 11 11 9 9 10 11
Wind_Direction
253 252 233 230 238 229 247 242 248 199 190 140 304 286 298 339 298 28 138 156 163 164 174 177 178 173 170 163 161 164 169 174 175 175 171 164 161 161 161 161 159 154 155 157 162 165 164 160 155
224 228 210 235 242 234 234 235 200 219 131 196 281 246 247 244 234 93 138 162 160 167 173 177 178 174 172 166 164 164 170 177 180 181 178 172 168 167 165 165 164 162 164 169 171 171 166 160 157
180 177 233 230 236 238 244 203 234 233 232 268 276 241 291 245 227 184 181 159 160 167 173 177 176 175 172 167 165 168 172 176 181 181 179 175 171 171 169 168 168 171 173 175 174 171 166 164 163
178 188 235 241 239 237 251 254 180 258 227 237 257 265 235 265 298 192 160 158 161 162 167 175 175 175 173 169 168 172 174 175 175 177 178 176 174 174 172 172 173 177 180 180 177 174 172 171 171
193 234 239 231 247 249 233 258 272 245 247 224 222 255 279 232 132 150 158 160 162 162 168 175 175 176 174 173 172 175 173 172 176 179 177 177 177 176 176 177 177 181 185 186 183 181 179 179 178
211 248 237 237 243 239 224 243 240 234 247 242 264 254 261 197 169 162 162 161 166 166 169 178 177 178 177 177 177 178 176 172 175 179 180 180 180 180 181 182 184 189 192 193 191 189 188 186 188
241 217 241 246 251 253 232 219 244 240 247 246 234 259 244 204 185 170 163 166 166 169 167 177 178 181 181 182 184 185 181 177 175 178 183 185 185 185 189 192 196 200 201 200 199 198 196 195 195
222 251 252 241 247 249 244 233 222 236 232 211 198 234 239 162 173 172 169 170 169 171 172 173 178 183 185 187 190 191 189 185 180 179 183 187 189 193 195 198 202 205 208 211 210 208 207 207 206
212 233 239 240 231 246 247 226 205 230 230 211 211 240 256 204 176 177 171 171 172 174 175 176 179 183 181 188 191 193 193 191 186 183 185 189 195 198 201 202 205 209 212 216 217 215 215 216 218
207 227 238 242 241 244 236 238 189 216 220 212 200 222 245 197 189 186 181 178 176 175 178 181 181 183 182 187 193 193 196 195 194 195 193 194 193 201 207 214 208 210 213 216 216 216 217 218 223
220 236 230 236 232 249 255 218 235 234 225 211 202 200 192 198 200 196 192 187 179 176 177 183 183 184 186 189 191 189 194 197 200 201 204 193 201 205 202 217 217 218 218 219 223 219 221 221 214
240 235 241 251 230 241 245 245 240 238 242 266 192 183 207 212 207 201 193 187 179 181 182 186 188 190 189 192 192 194 195 198 201 205 207 201 203 208 204 213 221 221 224 213 216 222 217 225 228
224 245 226 243 237 236 246 244 246 235 237 240 229 243 248 233 211 200 193 189 183 184 188 193 194 199 199 193 197 196 203 199 202 206 211 207 209 213 211 217 218 227 225 226 219 218 227 229 242
229 235 245 229 240 240 242 247 234 233 231 233 238 244 241 230 207 194 190 188 189 189 193 196 200 205 206 200 201 204 203 208 203 208 211 212 211 227 223 225 229 230 230 230 231 232 237 245 244
253 241 238 235 231 229 238 249 240 235 231 235 234 235 230 225 213 199 192 193 194 195 196 203 205 208 208 203 207 205 215 208 210 210 214 216 220 226 219 230 233 236 237 229 234 228 237 251 259
229 238 238 223 221 230 221 253 228 226 226 229 228 228 227 224 213 203 204 206 205 199 200 201 205 212 211 206 210 205 212 210 219 218 217 218 221 218 233 234 240 243 237 244 242 247 261 269 274
218 230 225 229 195 213 205 240 241 195 217 224 222 218 221 219 212 208 205 206 206 202 202 202 207 212 214 206 218 218 207 204 211 216 218 218 215 220 219 221 229 239 250 256 240 292 298 299 308
223 226 244 218 204 210 208 231 213 220 224 224 224 217 215 215 209 208 203 201 201 202 201 206 211 203 210 213 212 211 202 204 208 207 214 214 217 221 219 215 205 196 158 325 341 98 108 312 298
261 253 228 233 211 203 223 215 223 219 220 212 208 210 211 210 206 206 204 203 200 199 200 212 213 206 213 211 207 196 196 192 202 210 222 232 236 241 239 219 190 225 81 3 318 294 341 279 277
245 252 241 238 207 202 217 227 219 221 214 212 212 212 207 204 204 201 205 204 203 207 211 218 219 212 212 212 199 200 218 199 199 202 218 239 242 257 251 238 254 234 302 287 154 247 277 271 270
226 231 235 225 208 216 231 223 217 210 226 212 215 218 214 208 205 203 201 201 204 207 213 205 212 217 209 193 184 183 186 186 185 198 214 220 238 256 259 245 226 222 176 184 204 229 254 254 251
227 223 236 222 202 217 209 233 209 209 215 223 227 224 217 209 206 202 202 201 205 207 200 196 201 209 199 196 190 191 192 190 198 194 214 185 161 149 146 158 169 189 199 216 233 242 251 261 270
233 225 219 219 230 232 186 237 236 196 210 215 208 210 209 206 203 201 202 204 197 188 186 191 195 190 189 185 185 200 202 202 191 190 194 183 186 197 201 207 222 222 228 238 233 239 244 272 280
230 227 222 222 235 226 218 209 225 192 209 209 197 206 206 204 200 200 196 179 169 171 184 176 179 179 176 177 182 184 200 212 202 204 193 196 203 209 213 220 227 227 224 233 241 260 280 291 295
219 202 185 196 210 218 211 209 224 187 196 207 199 196 201 200 197 190 170 166 169 168 168 179 183 181 182 185 185 191 178 116 212 185 193 199 208 207 211 207 205 216 229 247 271 281 289 293 297
198 199 202 183 194 209 205 218 206 190 198 211 180 180 168 177 174 169 168 161 156 158 161 172 174 164 171 164 156 145 120 123 340 208 185 200 198 198 198 204 213 229 247 269 285 301 301 298 301
199 200 220 256 194 221 184 221 203 189 165 183 152 154 158 156 157 153 148 150 147 146 144 141 138 134 137 148 163 209 247 291 251 232 175 178 189 197 202 215 232 253 277 290 299 295 306 307 312
213 209 214 230 212 202 188 203 196 188 168 154 155 151 144 143 142 141 143 142 137 136 136 135 140 141 144 152 144 145 116 150 211 239 222 214 204 207 222 236 256 272 288 300 310 312 304 311 310
211 209 214 212 234 198 183 201 169 183 174 161 148 151 141 134 137 139 134 135 136 136 131 130 132 137 140 138 135 139 145 168 191 193 192 195 201 214 230 256 285 301 308 316 320 317 313 306 309
220 220 199 206 205 216 209 166 58 175 161 145 141 143 131 131 129 125 128 131 132 129 126 122 121 120 123 124 128 132 139 156 172 180 186 189 200 211 234 259 301 312 314 317 316 314 314 319 316